User: anonymous   Login
Location: Unspecified
(0.0000°N, 0.0000°E)
Time: 18:00:25
(UTC+00:00)
Language:

CUTE 1.7 + AOD 2 - Orbit

View from above orbital plane
View from above orbital plane
View from above satellite
View from above satellite

Ground track
Ground track

The orbit data is extracted from the following two-line orbital elements,

1 32785U 08021C   15242.20444068  .00000782  00000-0  93015-4 0  9997
2 32785 097.6426 283.0207 0013493 175.7471 258.3176 14.87031261397234
Epoch (UTC): 30 August 2015 04:54:23
Eccentricity: 0.0013493
inclination: 97.6426°
perigee height: 598 km
apogee height: 616 km
right ascension of ascending node: 283.0207°
argument of perigee: 175.7471°
revolutions per day: 14.87031261
mean anomaly at epoch: 258.3176°
orbit number at epoch: 39723

The dashed part of the orbit path shows where the satellite is in the earth's shadow,  

DLR